FW1562 Weather Reports


Display with metric or nautical units.
time (UTC)temp
F
wind
direction
speed
MPH
gust
MPH
rain 1hr
in
rain 24hr
in
rain mn
in
humidity
%
barometer
mb
20210924220644 85 175 3.0 7.0 0.00 0.00 0.00 34 1019.2
20210924220145 85 147 4.0 7.0 0.00 0.00 0.00 35 1019.2
20210924215642 86 174 3.0 7.0 0.00 0.00 0.00 35 1019.2
20210924215142 85 98 2.0 7.0 0.00 0.00 0.00 36 1019.2
20210924214638 85 141 4.0 10.0 0.00 0.00 0.00 35 1019.3
20210924214139 85 102 4.0 10.0 0.00 0.00 0.00 37 1019.5
20210924213638 85 137 4.0 8.0 0.00 0.00 0.00 35 1019.5
20210924213139 85 213 4.0 10.0 0.00 0.00 0.00 35 1019.5
20210924212639 86 132 3.0 10.0 0.00 0.00 0.00 36 1019.5
20210924212141 86 193 4.0 10.0 0.00 0.00 0.00 36 1019.3
20210924211639 86 196 3.0 10.0 0.00 0.00 0.00 37 1019.3
20210924211138 86 165 2.0 9.0 0.00 0.00 0.00 36 1019.3
20210924210640 86 168 2.0 11.0 0.00 0.00 0.00 37 1019.2
20210924210140 85 216 2.0 11.0 0.00 0.00 0.00 35 1019.3
20210924205638 85 349 2.0 6.0 0.00 0.00 0.00 39 1019.4
20210924205138 85 126 3.0 10.0 0.00 0.00 0.00 36 1019.5
20210924204640 85 59 4.0 10.0 0.00 0.00 0.00 38 1019.6
20210924204137 85 163 4.0 9.0 0.00 0.00 0.00 36 1019.6
20210924203639 85 132 2.0 8.0 0.00 0.00 0.00 36 1019.6
20210924203134 85 185 2.0 8.0 0.00 0.00 0.00 36 1019.6
20210924202636 85 185 4.0 8.0 0.00 0.00 0.00 36 1019.8
20210924202134 85 197 3.0 7.0 0.00 0.00 0.00 36 1019.9
20210924201635 85 196 3.0 8.0 0.00 0.00 0.00 36 1019.9
20210924201135 85 171 4.0 8.0 0.00 0.00 0.00 36 1019.9
20210924200634 85 142 4.0 8.0 0.00 0.00 0.00 36 1019.9
20210924200135 85 168 3.0 7.0 0.00 0.00 0.00 37 1020.0
20210924195634 85 42 2.0 6.0 0.00 0.00 0.00 38 1020.1
20210924195134 84 52 2.0 10.0 0.00 0.00 0.00 38 1020.1
20210924194636 84 47 3.0 10.0 0.00 0.00 0.00 35 1020.2
20210924194132 84 167 5.0 10.0 0.00 0.00 0.00 38 1020.4
20210924193632 84 199 4.0 10.0 0.00 0.00 0.00 37 1020.4
20210924193132 84 153 2.0 6.0 0.00 0.00 0.00 39 1020.4
20210924192632 84 223 3.0 8.0 0.00 0.00 0.00 39 1020.4
20210924192130 84 245 3.0 8.0 0.00 0.00 0.00 38 1020.6
20210924191632 84 118 2.0 7.0 0.00 0.00 0.00 40 1020.7
20210924191129 84 23 2.0 7.0 0.00 0.00 0.00 40 1020.8
20210924190628 83 128 4.0 9.0 0.00 0.00 0.00 39 1020.8
20210924190128 83 194 5.0 12.0 0.00 0.00 0.00 39 1020.8
20210924185628 83 175 6.0 12.0 0.00 0.00 0.00 41 1020.9
20210924185128 83 140 4.0 10.0 0.00 0.00 0.00 41 1021.1
20210924184628 83 146 2.0 8.0 0.00 0.00 0.00 39 1021.1
20210924184129 83 355 3.0 8.0 0.00 0.00 0.00 42 1021.1
20210924183628 83 46 4.0 11.0 0.00 0.00 0.00 43 1021.2
20210924183128 83 118 4.0 11.0 0.00 0.00 0.00 40 1021.3
20210924182627 83 153 2.0 7.0 0.00 0.00 0.00 41 1021.3
20210924182130 83 180 2.0 5.0 0.00 0.00 0.00 40 1021.6
20210924181625 83 196 1.0 5.0 0.00 0.00 0.00 41 1021.8
20210924181119 83 155 2.0 8.0 0.00 0.00 0.00 41 1021.8
20210924180618 83 94 3.0 8.0 0.00 0.00 0.00 42 1021.9
20210924180115 82 55 3.0 8.0 0.00 0.00 0.00 43 1021.9
20210924175616 82 96 4.0 10.0 0.00 0.00 0.00 46 1021.9
20210924175120 82 61 3.0 10.0 0.00 0.00 0.00 44 1021.9
20210924174617 82 147 3.0 7.0 0.00 0.00 0.00 45 1022.1
20210924174118 81 201 3.0 11.0 0.00 0.00 0.00 46 1022.2
20210924173616 81 109 4.0 11.0 0.00 0.00 0.00 45 1022.4
20210924173113 81 129 4.0 8.0 0.00 0.00 0.00 44 1022.5
20210924172609 81 169 4.0 9.0 0.00 0.00 0.00 43 1022.6
20210924172109 81 179 4.0 9.0 0.00 0.00 0.00 44 1022.6
20210924171612 81 151 3.0 8.0 0.00 0.00 0.00 45 1022.6
20210924171109 81 115 4.0 10.0 0.00 0.00 0.00 43 1022.7
20210924170608 81 141 4.0 10.0 0.00 0.00 0.00 44 1022.7
20210924170107 81 133 3.0 8.0 0.00 0.00 0.00 46 1022.8
20210924165607 80 145 2.0 7.0 0.00 0.00 0.00 46 1022.9
20210924165109 80 128 3.0 8.0 0.00 0.00 0.00 47 1023.0
20210924164606 80 148 4.0 9.0 0.00 0.00 0.00 47 1023.1
20210924164103 80 174 4.0 9.0 0.00 0.00 0.00 47 1023.2
20210924163602 80 144 2.0 8.0 0.00 0.00 0.00 47 1022.9
20210924163103 80 187 2.0 7.0 0.00 0.00 0.00 52 1023.0
20210924162601 79 211 3.0 7.0 0.00 0.00 0.00 52 1023.1
20210924162101 79 234 3.0 7.0 0.00 0.00 0.00 54 1023.1
20210924161602 79 171 2.0 7.0 0.00 0.00 0.00 53 1022.9
20210924161101 78 136 2.0 7.0 0.00 0.00 0.00 55 1023.1
20210924160600 78 117 2.0 5.0 0.00 0.00 0.00 56 1023.2
20210924160100 78 281 3.0 9.0 0.00 0.00 0.00 55 1023.2
20210924155559 78 198 3.0 9.0 0.00 0.00 0.00 54 1023.1
20210924155102 78 215 2.0 6.0 0.00 0.00 0.00 56 1023.2
20210924154559 77 221 2.0 6.0 0.00 0.00 0.00 58 1023.2
20210924154059 76 292 3.0 6.0 0.00 0.00 0.00 58 1023.2
20210924153559 76 277 3.0 6.0 0.00 0.00 0.00 60 1023.2
20210924153059 75 198 2.0 6.0 0.00 0.00 0.00 62 1023.2
20210924152557 75 270 3.0 7.0 0.00 0.00 0.00 62 1023.1
20210924152057 74 200 2.0 7.0 0.00 0.00 0.00 62 1023.0
20210924151555 74 197 1.0 5.0 0.00 0.00 0.00 63 1023.0
20210924151057 73 164 0.0 0.0 0.00 0.00 0.00 67 1022.9
20210924150556 73 160 0.0 0.0 0.00 0.00 0.00 66 1023.0
20210924150055 72 101 0.0 0.0 0.00 0.00 0.00 70 1023.0
20210924145556 71 101 0.0 0.0 0.00 0.00 0.00 71 1023.0
20210924145055 70 101 0.0 0.0 0.00 0.00 0.00 72 1023.0
20210924144554 69 101 0.0 0.0 0.00 0.00 0.00 74 1023.1
20210924144053 69 101 0.0 0.0 0.00 0.00 0.00 75 1022.9
20210924143553 68 101 0.0 0.0 0.00 0.00 0.00 79 1022.9
20210924143055 67 101 0.0 0.0 0.00 0.00 0.00 79 1023.0
20210924142553 67 101 0.0 0.0 0.00 0.00 0.00 80 1022.8
20210924142053 66 101 0.0 0.0 0.00 0.00 0.00 82 1022.8
20210924141554 64 101 0.0 0.0 0.00 0.00 0.00 86 1022.7
20210924141052 63 101 0.0 0.0 0.00 0.00 0.00 86 1022.7
20210924140552 63 101 0.0 0.0 0.00 0.00 0.00 86 1022.7
20210924140052 62 101 0.0 0.0 0.00 0.00 0.00 88 1022.6
20210924135545 61 101 0.0 0.0 0.00 0.00 0.00 89 1022.5
20210924135041 60 101 0.0 0.0 0.00 0.00 0.00 90 1022.7
20210924134543 60 103 0.0 0.0 0.00 0.00 0.00 92 1022.6
20210924134039 59 103 0.0 0.0 0.00 0.00 0.00 93 1022.5
20210924133537 58 103 0.0 0.0 0.00 0.00 0.00 94 1022.6
20210924133037 57 103 0.0 1.0 0.00 0.00 0.00 95 1022.5
20210924132537 57 175 0.0 3.0 0.00 0.00 0.00 97 1022.6
20210924132036 56 176 0.0 3.0 0.00 0.00 0.00 98 1022.6
20210924131536 55 175 1.0 2.0 0.00 0.00 0.00 98 1022.6
20210924131035 54 175 0.0 2.0 0.00 0.00 0.00 98 1022.4
20210924130537 53 176 0.0 2.0 0.00 0.00 0.00 98 1022.4
20210924130036 52 175 0.0 0.0 0.00 0.00 0.00 98 1022.4
20210924125536 51 175 0.0 0.0 0.00 0.00 0.00 97 1022.4
20210924125037 51 175 0.0 0.0 0.00 0.00 0.00 97 1022.3
20210924124537 51 176 0.0 0.0 0.00 0.00 0.00 96 1022.3
20210924124036 50 175 0.0 0.0 0.00 0.00 0.00 96 1022.3
20210924123535 50 175 0.0 0.0 0.00 0.00 0.00 96 1022.4
20210924123034 50 175 0.0 0.0 0.00 0.00 0.00 96 1022.2
20210924122535 50 175 0.0 0.0 0.00 0.00 0.00 95 1022.1
20210924122033 50 175 0.0 0.0 0.00 0.00 0.00 95 1022.0
20210924121534 50 175 0.0 0.0 0.00 0.00 0.00 95 1022.0
20210924121033 51 175 0.0 0.0 0.00 0.00 0.00 96 1022.0
20210924120536 50 175 0.0 0.0 0.00 0.00 0.00 96 1021.9
20210924120033 50 175 0.0 0.0 0.00 0.00 0.00 95 1021.9
20210924115533 51 175 0.0 0.0 0.00 0.00 0.00 95 1021.8
20210924115034 51 175 0.0 0.0 0.00 0.00 0.00 95 1021.9
20210924114532 51 175 0.0 0.0 0.00 0.00 0.00 95 1021.8
20210924114031 51 175 0.0 0.0 0.00 0.00 0.00 95 1021.8
20210924113532 51 175 0.0 0.0 0.00 0.00 0.00 95 1021.7
20210924113032 51 175 0.0 0.0 0.00 0.00 0.00 95 1021.7
20210924112532 51 175 0.0 0.0 0.00 0.00 0.00 95 1021.7
20210924112031 51 175 0.0 0.0 0.00 0.00 0.00 95 1021.6
20210924111530 51 175 0.0 0.0 0.00 0.00 0.00 95 1021.5
20210924111029 51 175 0.0 0.0 0.00 0.00 0.00 94 1021.5
20210924110530 51 175 0.0 0.0 0.00 0.00 0.00 94 1021.5
20210924110028 51 175 0.0 0.0 0.00 0.00 0.00 95 1021.5
20210924105528 51 175 0.0 0.0 0.00 0.00 0.00 95 1021.5
20210924105025 51 175 0.0 0.0 0.00 0.00 0.00 95 1021.4
20210924104526 51 175 0.0 0.0 0.00 0.00 0.00 94 1021.4
20210924104026 51 175 0.0 0.0 0.00 0.00 0.00 94 1021.3
20210924103526 52 175 0.0 0.0 0.00 0.00 0.00 94 1021.3
20210924103027 52 175 0.0 0.0 0.00 0.00 0.00 94 1021.2
20210924102527 52 175 0.0 0.0 0.00 0.00 0.00 94 1021.2
20210924102026 52 175 0.0 0.0 0.00 0.00 0.00 94 1021.2
20210924101526 52 175 0.0 0.0 0.00 0.00 0.00 94 1021.1
20210924101023 52 175 0.0 0.0 0.00 0.00 0.00 94 1021.0
20210924100524 52 175 0.0 0.0 0.00 0.00 0.00 94 1020.9
20210924100022 52 175 0.0 0.0 0.00 0.00 0.00 94 1020.9
20210924095521 52 175 0.0 0.0 0.00 0.00 0.00 94 1020.8
20210924095018 52 175 0.0 0.0 0.00 0.00 0.00 93 1020.8
20210924094519 52 175 0.0 0.0 0.00 0.00 0.00 93 1020.8
20210924094020 52 175 0.0 0.0 0.00 0.00 0.00 93 1020.7
20210924093518 52 175 0.0 0.0 0.00 0.00 0.00 93 1020.7
20210924093018 53 175 0.0 0.0 0.00 0.00 0.00 93 1020.6
20210924084016 54 175 0.0 0.0 0.00 0.00 0.00 92 1020.7
20210924083516 54 175 0.0 0.0 0.00 0.00 0.00 92 1020.6
20210924083016 54 175 0.0 0.0 0.00 0.00 0.00 92 1020.6
20210924082519 54 175 0.0 0.0 0.00 0.00 0.00 92 1020.5
20210924082017 54 175 0.0 0.0 0.00 0.00 0.00 92 1020.5
20210924081518 54 175 0.0 0.0 0.00 0.00 0.00 92 1020.6
20210924081016 54 175 0.0 0.0 0.00 0.00 0.00 92 1020.5
20210924080517 54 175 0.0 0.0 0.00 0.00 0.00 92 1020.5
20210924080018 54 175 0.0 0.0 0.00 0.00 0.00 92 1020.6
20210924075517 54 175 0.0 0.0 0.00 0.00 0.00 92 1020.4
20210924075016 54 175 0.0 0.0 0.00 0.00 0.00 92 1020.6
20210924074516 54 175 0.0 0.0 0.00 0.00 0.00 92 1020.6
20210924074017 54 175 0.0 0.0 0.00 0.00 0.00 91 1020.6
20210924073517 54 175 0.0 0.0 0.00 0.00 0.00 91 1020.7
20210924073017 54 175 0.0 0.0 0.00 0.00 0.00 91 1020.7
20210924072517 54 175 0.0 0.0 0.00 0.00 0.00 91 1020.7
20210924072016 54 175 0.0 0.0 0.00 0.00 0.00 91 1020.7
20210924071516 55 175 0.0 0.0 0.00 0.00 0.00 91 1020.8
20210924071016 55 175 0.0 0.0 0.00 0.00 0.00 91 1020.7
20210924070517 55 175 0.0 0.0 0.00 0.00 0.00 91 1020.7
20210924070018 55 175 0.0 0.0 0.00 0.00 0.00 91 1020.7
20210924065518 55 175 0.0 0.0 0.00 0.00 0.00 91 1020.6
20210924065016 55 175 0.0 0.0 0.00 0.00 0.00 91 1020.6
20210924064517 55 175 0.0 0.0 0.00 0.00 0.00 90 1020.5
20210924064016 55 175 0.0 0.0 0.00 0.00 0.00 89 1020.6
20210924063516 55 175 0.0 0.0 0.00 0.00 0.00 89 1020.5
20210924063017 55 175 0.0 0.0 0.00 0.00 0.00 88 1020.5
20210924062516 55 175 0.0 0.0 0.00 0.00 0.00 88 1020.5
20210924062018 55 175 0.0 0.0 0.00 0.00 0.00 88 1020.5
20210924061518 55 175 0.0 0.0 0.00 0.00 0.00 88 1020.5
20210924061018 55 175 0.0 0.0 0.00 0.00 0.00 88 1020.5
20210924060517 55 175 0.0 0.0 0.00 0.00 0.00 88 1020.4
20210924060014 55 175 0.0 0.0 0.00 0.00 0.00 88 1020.3
20210924055517 55 175 0.0 0.0 0.00 0.00 0.00 87 1020.3
20210924055013 56 175 0.0 0.0 0.00 0.00 0.00 87 1020.3
20210924054517 56 175 0.0 0.0 0.00 0.00 0.00 86 1020.4
20210924054013 56 175 0.0 0.0 0.00 0.00 0.00 86 1020.3
20210924053438 56 175 0.0 0.0 0.00 0.00 0.00 85 1020.3
20210924052926 56 175 0.0 0.0 0.00 0.00 0.00 84 1020.2
20210924052410 56 175 0.0 0.0 0.00 0.00 0.00 85 1020.1
20210924051908 56 175 0.0 0.0 0.00 0.00 0.00 86 1020.2
20210924051408 56 175 0.0 0.0 0.00 0.00 0.00 85 1020.2
20210924050814 56 175 0.0 0.0 0.00 0.00 0.00 85 1020.2
20210924050316 56 175 0.0 0.0 0.00 0.00 0.00 85 1020.3
20210924045812 57 175 0.0 0.0 0.00 0.00 0.00 84 1020.3
20210924045255 57 175 0.0 0.0 0.00 0.00 0.00 84 1020.4
20210924044733 57 175 0.0 0.0 0.00 0.00 0.00 84 1020.2
20210924044224 57 175 0.0 0.0 0.00 0.00 0.00 84 1020.2
20210924043713 57 175 0.0 0.0 0.00 0.00 0.00 85 1020.2
20210924043217 57 175 0.0 0.0 0.00 0.00 0.00 85 1020.0
20210924042730 58 175 0.0 0.0 0.00 0.00 0.00 85 1020.1
20210924042216 58 175 0.0 0.0 0.00 0.00 0.00 85 1020.1
20210924041718 58 175 0.0 0.0 0.00 0.00 0.00 85 1020.2
20210924041159 58 175 0.0 0.0 0.00 0.00 0.00 86 1020.2
20210924040644 58 175 0.0 0.0 0.00 0.00 0.00 85 1020.2
20210924040136 58 175 0.0 1.0 0.00 0.00 0.00 84 1020.1
20210924035555 58 175 0.0 3.0 0.00 0.00 0.00 83 1020.0
20210924035017 58 175 0.0 3.0 0.00 0.00 0.00 82 1020.0
20210924034516 58 175 0.0 0.0 0.00 0.00 0.00 80 1020.0
20210924034008 59 175 0.0 0.0 0.00 0.00 0.00 80 1020.0
20210924033459 59 175 0.0 0.0 0.00 0.00 0.00 81 1020.1
20210924032953 59 175 0.0 2.0 0.00 0.00 0.00 81 1020.1
20210924032451 59 175 1.0 2.0 0.00 0.00 0.00 81 1020.1
20210924031918 60 175 1.0 2.0 0.00 0.00 0.00 81 1020.1
20210924031414 60 175 1.0 3.0 0.00 0.00 0.00 80 1020.1
20210924030913 60 175 0.0 3.0 0.00 0.00 0.00 79 1020.1
20210924030417 60 175 0.0 0.0 0.00 0.00 0.00 78 1020.1
20210924025906 60 175 0.0 0.0 0.00 0.00 0.00 73 1020.0
20210924025407 60 175 0.0 0.0 0.00 0.00 0.00 72 1019.9
20210924024841 60 176 0.0 0.0 0.00 0.00 0.00 72 1020.0
20210924024339 61 175 0.0 0.0 0.00 0.00 0.00 74 1019.9
20210924023840 61 175 0.0 0.0 0.00 0.00 0.00 73 1019.9
20210924023320 61 175 0.0 0.0 0.00 0.00 0.00 73 1020.0
20210924022815 62 175 0.0 0.0 0.00 0.00 0.00 71 1020.0
20210924022306 62 175 0.0 0.0 0.00 0.00 0.00 70 1019.9
20210924021759 62 175 0.0 0.0 0.00 0.00 0.00 70 1019.8
20210924021249 62 175 0.0 0.0 0.00 0.00 0.00 69 1019.8
20210924020735 63 175 0.0 0.0 0.00 0.00 0.00 69 1019.7
20210924020219 63 175 0.0 0.0 0.00 0.00 0.00 69 1019.6
20210924015655 63 175 0.0 1.0 0.00 0.00 0.00 68 1019.6
20210924015116 64 175 1.0 1.0 0.00 0.00 0.00 68 1019.5
20210924014604 64 175 2.0 7.0 0.00 0.00 0.00 67 1019.5
20210924014104 64 175 1.0 7.0 0.00 0.00 0.00 67 1019.5
20210924013604 64 32 0.0 3.0 0.00 0.00 0.00 63 1019.4
20210924013055 65 32 0.0 0.0 0.00 0.00 0.00 64 1019.4
20210924012554 65 32 0.0 0.0 0.00 0.00 0.00 64 1019.3
20210924012048 66 32 0.0 0.0 0.00 0.00 0.00 60 1019.3
20210924011540 66 32 0.0 0.0 0.00 0.00 0.00 59 1019.3
20210924011035 67 32 0.0 0.0 0.00 0.00 0.00 60 1019.2
20210924010524 67 32 0.0 0.0 0.00 0.00 0.00 59 1019.2
20210924010009 68 32 0.0 0.0 0.00 0.00 0.00 57 1019.3
20210924005510 69 32 0.0 0.0 0.00 0.00 0.00 58 1019.3
20210924005011 69 32 0.0 0.0 0.00 0.00 0.00 56 1019.3
20210924004448 70 32 0.0 0.0 0.00 0.00 0.00 56 1019.2
20210924003943 71 32 0.0 0.0 0.00 0.00 0.00 53 1019.1
20210924003426 72 32 0.0 0.0 0.00 0.00 0.00 53 1019.1
20210924002921 73 32 0.0 0.0 0.00 0.00 0.00 52 1019.2
20210924002412 74 32 0.0 0.0 0.00 0.00 0.00 49 1019.2
20210924001857 75 32 0.0 0.0 0.00 0.00 0.00 47 1019.2
20210924001354 75 32 0.0 0.0 0.00 0.00 0.00 46 1019.1
20210924000854 76 32 0.0 0.0 0.00 0.00 0.00 44 1019.2
20210924000339 78 32 0.0 0.0 0.00 0.00 0.00 42 1019.3
20210923235817 79 32 0.0 0.0 0.00 0.00 0.00 41 1019.4
20210923235318 80 32 0.0 0.0 0.00 0.00 0.00 38 1019.4
20210923234821 81 32 0.0 0.0 0.00 0.00 0.00 37 1019.3
20210923234315 82 32 0.0 1.0 0.00 0.00 0.00 37 1019.3
20210923233804 82 32 1.0 3.0 0.00 0.00 0.00 33 1019.3
20210923233233 82 32 1.0 3.0 0.00 0.00 0.00 33 1019.4
20210923232724 83 32 1.0 3.0 0.00 0.00 0.00 33 1019.5
20210923232222 83 32 1.0 3.0 0.00 0.00 0.00 31 1019.4
20210923231723 82 32 1.0 4.0 0.00 0.00 0.00 30 1019.4
20210923231220 83 32 1.0 4.0 0.00 0.00 0.00 31 1019.4
20210923230718 83 52 2.0 4.0 0.00 0.00 0.00 31 1019.4
20210923230216 83 52 2.0 5.0 0.00 0.00 0.00 30 1019.5
20210923225717 83 40 1.0 5.0 0.00 0.00 0.00 29 1019.6
20210923225215 83 47 1.0 4.0 0.00 0.00 0.00 28 1019.7
20210923224716 83 47 1.0 4.0 0.00 0.00 0.00 30 1019.7
20210923224216 84 74 1.0 4.0 0.00 0.00 0.00 26 1019.6
20210923223718 84 348 1.0 3.0 0.00 0.00 0.00 27 1019.5
20210923223216 84 336 1.0 4.0 0.00 0.00 0.00 27 1019.6
20210923222717 84 336 2.0 4.0 0.00 0.00 0.00 26 1019.7
20210923222217 84 317 2.0 5.0 0.00 0.00 0.00 26 1019.6
20210923221719 84 11 2.0 5.0 0.00 0.00 0.00 26 1019.7
20210923221215 84 63 2.0 5.0 0.00 0.00 0.00 27 1019.7